Tracking 28348 objects as of 9-Dec-2023
HD Live streaming from Space Station
objects crossing your sky now

STARLINK-1837

Track STARLINK-1837 now!
10-day predictions
STARLINK-1837 is classified as:


NORAD ID: 47128
Int'l Code: 2020-088G
Perigee: 553.4 km
Apogee: 555.2 km
Inclination: 53.1 °
Period: 95.6 minutes
Semi major axis: 6925 km
RCS: Unknown
Launch date: November 25, 2020
Source: United States (US)
Launch site: AIR FORCE EASTERN TEST RANGE (AFETR)
Your satellite tracking list
Your tracking list is empty




NASA's NSSDC Master Catalog

Two Line Element Set (TLE):
1 47128U 20088G   23342.49399312 -.00000651  00000-0 -24831-4 0  9990
2 47128  53.0566  12.5936 0001312  95.8045 264.3094 15.06411002168196
Source of the keplerian elements: AFSPC